Home   Weather   Niš   Past weeks

Flag for Serbia Past Weather in Niš, Serbia — Yesterday and Last 2 Weeks

Now
70 °F

Passing clouds.


Feels Like: 70 °F
Forecast: 41 / 71 °F
Wind: 5 mph from Northwest

Location: Nis Airport

Current Time: Sep 27, 2016 at 2:12:13 PM

Latest Report: Sep 27, 2016 at 2:00 PM


Visibility: N/A

Pressure: 30.24 "Hg

Humidity: 38%

Dew Point: 43 °F

Location of NišLocation

Past Weather in Niš — Graph

°F

Niš Temperature Yesterday

Maximum temperature yesterday: 70 °F (at 3:00 PM)
Minimum temperature yesterday: 45 °F (at 5:00 AM)
Average temperature yesterday: 56 °F

High & Low Weather Summary for the Past Weeks

 TemperatureHumidityPressure
High88 °F (Sep 16, 3:00 PM)100% (Sep 24, 7:00 AM)30.39 "Hg (Sep 24, 7:00 AM)
Low39 °F (Sep 24, 6:30 AM)22% (Sep 15, 4:30 PM)29.62 "Hg (Sep 19, 2:30 PM)
Average62 °F65%30.05 "Hg
* Reported Sep 12 1:00 PM — Sep 27 1:00 PM, Niš, Weather by CustomWeather, © 2016

Note: Actual official high and low records may vary slightly from our data, if they occured in-between our weather recording intervals... More about our weather records

Advertising

Niš Weather History for the Previous 24 Hours

Scroll right to see more
 ConditionsComfort  
Time TempWeatherWind HumidityBarometerVisibility
1:00 PM
Tue, Sep 27
68 °FPassing clouds.3 mph43%30.27 "HgN/A
12:30 PM68 °FPassing clouds.2 mph43%30.27 "HgN/A
12:00 PM64 °FPassing clouds.1 mph49%30.27 "HgN/A
11:30 AM63 °FPassing clouds.1 mph52%30.27 "HgN/A
11:00 AM61 °FPassing clouds.2 mph59%30.27 "HgN/A
10:30 AM57 °FPassing clouds.1 mph63%30.30 "HgN/A
10:00 AM55 °FSunny.2 mph67%30.30 "Hg10 mi
9:30 AM52 °FSunny.2 mph77%30.30 "Hg10 mi
9:00 AM50 °FSunny.2 mph82%30.30 "Hg10 mi
8:30 AM48 °FSunny.2 mph87%30.27 "Hg10 mi
8:00 AM46 °FClear.2 mph93%30.27 "Hg5 mi
7:30 AM45 °FClear.1 mph93%30.27 "Hg4 mi
7:00 AM39 °FClear.1 mph93%30.27 "Hg5 mi
6:30 AM39 °FFog.1 mph87%30.27 "HgN/A
6:00 AM43 °FFog.2 mph87%30.24 "HgN/A
5:30 AM41 °FSleet. Overcast.1 mph100%30.24 "Hg5 mi
5:00 AM43 °FFog.1 mph93%30.24 "Hg5 mi
4:30 AM43 °FClear.1 mph93%30.24 "Hg10 mi
4:00 AM39 °FClear.1 mph93%30.24 "Hg10 mi
3:30 AM43 °FClear.1 mph93%30.24 "Hg10 mi
3:00 AM41 °FClear.1 mph93%30.24 "Hg10 mi
2:30 AM45 °FClear.No wind87%30.24 "Hg10 mi
2:00 AM46 °FClear.No wind87%30.24 "Hg10 mi
1:30 AM46 °FClear.2 mph87%30.24 "Hg10 mi
1:00 AM46 °FClear.1 mph82%30.24 "Hg10 mi
12:30 AM50 °FClear.1 mph76%30.21 "Hg10 mi
12:00 AM50 °FClear.No wind82%30.21 "Hg10 mi
11:30 PM
Mon, Sep 26
48 °FClear.2 mph87%30.21 "Hg10 mi
11:00 PM48 °FClear.No wind82%30.21 "Hg10 mi
10:30 PM50 °FClear.1 mph76%30.21 "Hg10 mi
10:00 PM52 °FClear.2 mph77%30.21 "Hg10 mi
9:30 PM55 °FClear.1 mph67%30.21 "Hg10 mi
9:00 PM54 °FClear.3 mph72%30.21 "Hg10 mi
8:30 PM54 °FClear.3 mph72%30.18 "Hg10 mi
8:00 PM54 °FClear.1 mph72%30.18 "Hg10 mi
7:30 PM57 °FPassing clouds.3 mph63%30.18 "HgN/A
7:00 PM59 °FClear.7 mph59%30.15 "Hg10 mi
6:30 PM61 °FClear.6 mph55%30.15 "Hg10 mi
6:00 PM64 °FPassing clouds.7 mph49%30.15 "HgN/A
5:30 PM66 °FPassing clouds.6 mph40%30.12 "HgN/A
5:00 PM68 °FPassing clouds.6 mph35%30.12 "HgN/A
4:30 PM68 °FScattered clouds.7 mph38%30.12 "HgN/A
4:00 PM68 °FScattered clouds.9 mph35%30.12 "HgN/A
3:30 PM70 °FScattered clouds.6 mph35%30.12 "HgN/A
3:00 PM70 °FScattered clouds.7 mph38%30.15 "HgN/A
2:30 PM68 °FScattered clouds.6 mph40%30.15 "HgN/A
2:00 PM66 °FScattered clouds.8 mph46%30.15 "HgN/A
Weather by CustomWeather, © 2016

See weather overviewHow to use our weather pages